GW2145 Weather Reports


Display with metric or nautical units.
time (UTC)temp
F
wind
direction
speed
MPH
gust
MPH
rain 1hr
in
rain 24hr
in
rain mn
in
humidity
%
barometer
mb
20260906215350 78 202 4.0 9.0 0.00 0.00 0.00 28 917.8
20260906214845 77 127 2.0 8.0 0.00 0.00 0.00 27 918.1
20260906213853 75 174 2.0 6.0 0.00 0.00 0.00 28 918.3
20260906212854 76 182 2.0 7.0 0.00 0.00 0.00 29 918.4
20260906211855 76 51 2.0 7.0 0.00 0.00 0.00 28 918.5
20260906210835 74 198 2.0 8.0 0.00 0.00 0.00 29 918.8
20260906205846 75 201 5.0 11.0 0.00 0.00 0.00 26 918.9
20260906204854 76 210 5.0 10.0 0.00 0.00 0.00 28 919.1
20260906204335 75 229 1.0 8.0 0.00 0.00 0.00 28 919.1
20260906203343 76 213 5.0 8.0 0.00 0.00 0.00 28 919.2
20260906202344 76 217 6.0 11.0 0.00 0.00 0.00 29 919.2
20260906201841 75 288 5.0 12.0 0.00 0.00 0.00 31 919.3
20260906200843 75 232 4.0 13.0 0.00 0.00 0.00 32 919.3
20260906195853 75 249 5.0 11.0 0.00 0.00 0.00 31 919.7
20260906194853 74 219 4.0 10.0 0.00 0.00 0.00 33 919.5
20260906193842 74 226 3.0 9.0 0.00 0.00 0.00 33 919.7
20260906192850 74 198 4.0 10.0 0.00 0.00 0.00 34 919.8
20260906191846 74 250 3.0 9.0 0.00 0.00 0.00 33 919.7
20260906190855 74 308 4.0 10.0 0.00 0.00 0.00 34 920.0
20260906185850 73 236 3.0 11.0 0.00 0.00 0.00 33 919.9
20260906185339 73 153 4.0 9.0 0.00 0.00 0.00 34 920.3
20260906184336 73 298 3.0 11.0 0.00 0.00 0.00 34 920.3
20260906183341 73 167 1.0 9.0 0.00 0.00 0.00 34 920.4
20260906182345 72 232 3.0 9.0 0.00 0.00 0.00 35 920.7
20260906181347 71 267 3.0 7.0 0.00 0.00 0.00 34 920.8
20260906180349 72 210 3.0 9.0 0.00 0.00 0.00 36 921.2
20260906175351 71 196 4.0 8.0 0.00 0.00 0.00 36 921.3
20260906174355 71 229 3.0 7.0 0.00 0.00 0.00 36 921.3
20260906173834 71 219 3.0 8.0 0.00 0.00 0.00 37 921.4
20260906172858 69 164 1.0 7.0 0.00 0.00 0.00 37 921.4
20260906171839 70 259 4.0 8.0 0.00 0.00 0.00 36 921.6
20260906171338 70 224 1.0 4.0 0.00 0.00 0.00 38 921.6
20260906170342 70 230 4.0 10.0 0.00 0.00 0.00 37 921.6
20260906165340 69 279 2.0 6.0 0.00 0.00 0.00 38 921.9
20260906164346 69 259 3.0 8.0 0.00 0.00 0.00 39 921.8
20260906163348 68 244 3.0 6.0 0.00 0.00 0.00 38 921.9
20260906162350 68 210 3.0 6.0 0.00 0.00 0.00 38 921.8
20260906161353 68 257 2.0 5.0 0.00 0.00 0.00 38 921.9
20260906160839 67 298 2.0 5.0 0.00 0.00 0.00 38 922.1
20260906160335 67 276 2.0 5.0 0.00 0.00 0.00 38 922.0
20260906155337 67 221 1.0 4.0 0.00 0.00 0.00 44 921.8
20260906154341 65 187 0.0 5.0 0.00 0.00 0.00 44 921.8
20260906153340 63 225 1.0 3.0 0.00 0.00 0.00 48 921.9
20260906152840 63 219 1.0 4.0 0.00 0.00 0.00 48 921.9
20260906151843 63 199 2.0 5.0 0.00 0.00 0.00 48 922.0
20260906150844 63 188 1.0 2.0 0.00 0.00 0.00 48 922.0
20260906145845 62 172 0.0 2.0 0.00 0.00 0.00 49 922.0
20260906144850 61 108 0.0 1.0 0.00 0.00 0.00 51 921.9
20260906143851 59 108 0.0 0.0 0.00 0.00 0.00 57 921.8
20260906143339 58 108 0.0 1.0 0.00 0.00 0.00 58 921.8
20260906142339 55 347 0.0 1.0 0.00 0.00 0.00 59 922.0
20260906141339 53 347 0.0 1.0 0.00 0.00 0.00 59 922.0
20260906140348 52 1 0.0 2.0 0.00 0.00 0.00 63 922.2
20260906135345 52 2 0.0 2.0 0.00 0.00 0.00 62 922.1
20260906134350 49 11 0.0 3.0 0.00 0.00 0.00 66 922.1
20260906133350 47 293 0.0 1.0 0.00 0.00 0.00 71 921.9
20260906132351 49 23 0.0 1.0 0.00 0.00 0.00 68 921.9
20260906131352 49 23 0.0 2.0 0.00 0.00 0.00 67 921.8
20260906130354 49 23 0.0 1.0 0.00 0.00 0.00 66 921.8
20260906125336 50 40 0.0 1.0 0.00 0.00 0.00 65 921.6
20260906124338 49 40 0.0 2.0 0.00 0.00 0.00 67 921.6
20260906123340 49 347 0.0 1.0 0.00 0.00 0.00 67 921.7
20260906122340 49 345 0.0 1.0 0.00 0.00 0.00 68 921.6
20260906121349 49 345 0.0 1.0 0.00 0.00 0.00 70 921.4
20260906120348 49 345 1.0 2.0 0.00 0.00 0.00 70 921.6
20260906115335 48 13 1.0 2.0 0.00 0.00 0.00 72 921.7
20260906114337 47 332 1.0 2.0 0.00 0.00 0.00 72 921.9
20260906113340 48 331 1.0 2.0 0.00 0.00 0.00 71 921.9
20260906112838 48 346 1.0 2.0 0.00 0.00 0.00 71 921.9
20260906111845 48 346 0.0 2.0 0.00 0.00 0.00 70 921.8
20260906110847 49 335 0.0 2.0 0.00 0.00 0.00 69 921.8
20260906105849 49 348 1.0 3.0 0.00 0.00 0.00 69 921.7
20260906104851 49 346 0.0 3.0 0.00 0.00 0.00 69 921.8
20260906103837 48 342 2.0 3.0 0.00 0.00 0.00 70 921.7
20260906102840 48 354 1.0 3.0 0.00 0.00 0.00 70 921.6
20260906101850 49 330 1.0 3.0 0.00 0.00 0.00 68 921.6
20260906100834 49 330 2.0 4.0 0.00 0.00 0.00 68 921.6
20260906095842 49 348 1.0 2.0 0.00 0.00 0.00 67 921.5
20260906094844 49 8 2.0 3.0 0.00 0.00 0.00 67 921.5
20260906093851 49 333 1.0 4.0 0.00 0.00 0.00 67 921.5
20260906092851 50 356 0.0 3.0 0.00 0.00 0.00 67 921.5
20260906091835 49 333 1.0 3.0 0.00 0.00 0.00 67 921.3
20260906090839 49 333 0.0 1.0 0.00 0.00 0.00 67 921.3
20260906085840 50 333 1.0 2.0 0.00 0.00 0.00 65 921.4
20260906084842 50 333 0.0 1.0 0.00 0.00 0.00 67 921.3
20260906083847 50 333 0.0 2.0 0.00 0.00 0.00 66 921.3
20260906082848 50 3 0.0 3.0 0.00 0.00 0.00 66 921.3
20260906082344 50 340 1.0 4.0 0.00 0.00 0.00 66 921.2
20260906081352 50 330 0.0 4.0 0.00 0.00 0.00 67 921.4
20260906080848 50 319 2.0 4.0 0.00 0.00 0.00 67 921.2
20260906075850 50 360 0.0 2.0 0.00 0.00 0.00 67 921.3
20260906074854 50 41 0.0 0.0 0.00 0.00 0.00 65 921.4
20260906073835 51 41 0.0 1.0 0.00 0.00 0.00 64 921.4
20260906072838 52 41 0.0 1.0 0.00 0.00 0.00 64 921.1
20260906071840 52 354 0.0 1.0 0.00 0.00 0.00 62 921.1
20260906070845 52 327 1.0 3.0 0.00 0.00 0.00 63 921.1
20260906065846 53 25 0.0 1.0 0.00 0.00 0.00 61 921.1
20260906064847 53 25 0.0 1.0 0.00 0.00 0.00 62 921.1
20260906063848 52 25 0.0 2.0 0.00 0.00 0.00 64 921.0
20260906062854 52 262 1.0 2.0 0.00 0.00 0.00 66 921.1
20260906061836 53 326 0.0 1.0 0.00 0.00 0.00 61 920.9
20260906060837 54 322 1.0 4.0 0.00 0.00 0.00 61 920.8
20260906055847 54 328 1.0 3.0 0.00 0.00 0.00 60 920.9
20260906054845 54 338 1.0 3.0 0.00 0.00 0.00 60 921.0
20260906053847 54 329 2.0 3.0 0.00 0.00 0.00 60 921.0
20260906052851 54 3 1.0 2.0 0.00 0.00 0.00 61 921.0
20260906052338 54 359 1.0 3.0 0.00 0.00 0.00 61 921.1
20260906051342 55 3 2.0 4.0 0.00 0.00 0.00 60 921.1
20260906050344 54 347 1.0 3.0 0.00 0.00 0.00 60 921.0
20260906045537 55 63 0.0 1.0 0.00 0.00 0.00 60 921.0
20260906044337 55 5 0.0 2.0 0.00 0.00 0.00 60 921.1
20260906043337 55 343 1.0 2.0 0.00 0.00 0.00 60 921.1
20260906042338 55 350 0.0 2.0 0.00 0.00 0.00 60 921.1
20260906041340 55 340 1.0 3.0 0.00 0.00 0.00 61 921.1
20260906040343 55 343 1.0 2.0 0.00 0.00 0.00 60 921.0
20260906035346 56 341 1.0 3.0 0.00 0.00 0.00 59 921.0
20260906034347 57 357 0.0 1.0 0.00 0.00 0.00 58 921.0
20260906033349 58 358 0.0 1.0 0.00 0.00 0.00 56 920.8
20260906032349 59 4 0.0 2.0 0.00 0.00 0.00 56 920.9
20260906031348 59 356 0.0 2.0 0.00 0.00 0.00 55 920.7
20260906030352 59 146 0.0 0.0 0.00 0.00 0.00 55 920.8
20260906025838 59 147 0.0 1.0 0.00 0.00 0.00 55 920.8
20260906024850 60 146 0.0 1.0 0.00 0.00 0.00 54 920.7
20260906023835 59 147 0.0 0.0 0.00 0.00 0.00 55 920.6
20260906022839 60 147 0.0 0.0 0.00 0.00 0.00 54 920.6
20260906021844 60 147 0.0 2.0 0.00 0.00 0.00 53 920.5
20260906020845 61 40 0.0 1.0 0.00 0.00 0.00 53 920.4
20260906015848 61 40 0.0 2.0 0.00 0.00 0.00 52 920.4
20260906015341 61 302 0.0 2.0 0.00 0.00 0.00 52 920.3
20260906014349 62 265 0.0 1.0 0.00 0.00 0.00 52 920.3
20260906013350 62 117 0.0 5.0 0.00 0.00 0.00 50 920.2
20260906012357 63 115 2.0 8.0 0.00 0.00 0.00 49 920.3
20260906011341 65 146 0.0 6.0 0.00 0.00 0.00 46 920.0
20260906005353 66 111 2.0 6.0 0.00 0.00 0.00 44 920.1
20260906004339 66 104 4.0 8.0 0.00 0.00 0.00 43 920.1
20260906003342 67 77 3.0 7.0 0.00 0.00 0.00 42 920.0
20260906002342 68 120 4.0 8.0 0.00 0.00 0.00 41 919.9
20260906001345 70 103 3.0 6.0 0.00 0.00 0.00 38 919.9
20260906000349 71 126 0.0 3.0 0.00 0.00 0.00 32 919.9
20260905235334 71 220 0.0 2.0 0.00 0.00 0.00 33 919.8
20260905234338 70 223 0.0 6.0 0.00 0.00 0.00 34 919.7
20260905233341 71 270 2.0 4.0 0.00 0.00 0.00 33 919.4
20260905232838 71 285 2.0 5.0 0.00 0.00 0.00 33 919.3
20260905231839 71 243 3.0 6.0 0.00 0.00 0.00 33 919.2
20260905230849 71 251 2.0 7.0 0.00 0.00 0.00 34 919.3
20260905230340 71 274 2.0 4.0 0.00 0.00 0.00 34 919.3
20260905225839 71 276 2.0 4.0 0.00 0.00 0.00 34 919.2
20260905224841 71 221 2.0 7.0 0.00 0.00 0.00 33 919.4
20260905223842 71 245 2.0 5.0 0.00 0.00 0.00 34 919.4
20260905222847 72 213 3.0 5.0 0.00 0.00 0.00 34 919.6
20260905221849 72 278 1.0 8.0 0.00 0.00 0.00 33 919.6
20260905220852 71 271 2.0 8.0 0.00 0.00 0.00 34 919.6